Dillon, MT

3:51 AM MDT on April 24, 2018 (GMT -0600)
Dillon

Weather History for KDLN - June, 2013

Change the Weather History Date:

Saturday, June 22, 2013

  Actual Average Record
Temperature  
Mean Temperature 52 °F 60 °F  
Max Temperature 62 °F 75 °F 93 °F (1970)
Min Temperature 41 °F 45 °F 35 °F (1942)
Degree Days  
Heating Degree Days 13    
Month to date heating degree days 174  
Since 1 June heating degree days 174  
Since 1 July heating degree days 7659  
Cooling Degree Days 0    
Month to date cooling degree days 1  
Year to date cooling degree days 4  
Since 1 June cooling degree days 1  
Growing Degree Days 2 (Base 50)    
Moisture  
Dew Point 42 °F    
Average Humidity 71    
Maximum Humidity 96    
Minimum Humidity 46    
Precipitation  
Precipitation T in 0.06 in 0.67 in (1976)
Month to date precipitation 1.13 1.60  
Year to date precipitation 4.06 5.67  
Snow  
Snow 0.00 in - - ()
Snow Depth 0.00 in    
Sea Level Pressure  
Sea Level Pressure 29.99 in    
Wind  
Wind Speed 5 mph (South)    
Max Wind Speed 9 mph    
Max Gust Speed 10 mph    
Visibility 10 miles    
Events Rain    
T = Trace of Precipitation, MM = Missing Value Source: NWS Daily Summary

Daily Weather History Graph

Daily Weather History Graph

Search for Another Location

Airport or City:

Astronomy

Jun. 22, 2013 Rise Set
Actual Time 5:42 AM MDT 9:21 PM MDT
Civil Twilight 5:04 AM MDT 9:59 PM MDT
Nautical Twilight 4:14 AM MDT 10:49 PM MDT
Astronomical Twilight 3:06 AM MDT 11:57 PM MDT
Moon 8:37 PM MDT (6/22) 5:02 AM MDT (6/22)
Length of Visible Light 16h 54m
Length of Day
15h 39m
Waxing Gibbous, 99% of the Moon is Illuminated
Jun 22
Waxing Gibbous
Jun 23
Full
Jun 29
Last Quarter
Jul 8
New
Jul 15
First Quarter

Hourly Weather History & Observations

Time (MDT) Temp. Windchill Dew Point Humidity Pressure Visibility Wind Dir Wind Speed Gust Speed Precip Events Conditions
12:53 AM 46.9 °F - 43.0 °F 86% 29.99 in 10.0 mi East 3.5 mph - N/A   Scattered Clouds
1:01 AM 46.4 °F - 42.8 °F 87% 30.07 in 10.0 mi Calm Calm - N/A   Mostly Cloudy
1:53 AM 46.9 °F - 43.0 °F 86% 29.97 in 10.0 mi Calm Calm - N/A   Overcast
2:24 AM 46.4 °F 45.2 °F 42.8 °F 87% 30.05 in 10.0 mi SSE 3.5 mph - N/A   Overcast
2:53 AM 46.9 °F - 43.0 °F 86% 29.96 in 10.0 mi Calm Calm - N/A   Overcast
3:53 AM 45.0 °F 43.5 °F 42.1 °F 90% 29.95 in 10.0 mi SSE 3.5 mph - N/A   Mostly Cloudy
4:53 AM 44.1 °F - 41.0 °F 89% 29.94 in 10.0 mi Calm Calm - N/A   Overcast
5:53 AM 43.0 °F 40.3 °F 41.0 °F 93% 29.94 in 10.0 mi ESE 4.6 mph - N/A   Mostly Cloudy
6:53 AM 46.0 °F - 42.1 °F 86% 29.94 in 10.0 mi Calm Calm - N/A   Overcast
7:53 AM 48.0 °F - 43.0 °F 83% 29.96 in 10.0 mi Calm Calm - N/A   Overcast
8:09 AM 48.2 °F - 44.6 °F 87% 30.05 in 10.0 mi Calm Calm - N/A   Overcast
8:53 AM 48.0 °F - 43.0 °F 83% 29.97 in 10.0 mi Calm Calm - N/A   Overcast
9:53 AM 48.9 °F - 44.1 °F 83% 29.99 in 10.0 mi WSW 11.5 mph - 0.00 in Rain Light Rain
10:49 AM 48.2 °F - 42.8 °F 82% 30.07 in 10.0 mi SSW 15.0 mph - 0.00 in   Overcast
10:53 AM 48.0 °F - 41.0 °F 77% 30.03 in 10.0 mi SW 12.7 mph - 0.00 in   Overcast
11:23 AM 48.2 °F - 39.2 °F 71% 30.07 in 10.0 mi WSW 4.6 mph - N/A   Overcast
11:53 AM 50.0 °F - 41.0 °F 71% 30.01 in 10.0 mi Calm Calm - N/A   Overcast
12:53 PM 53.1 °F - 41.0 °F 64% 30.00 in 10.0 mi NNE 3.5 mph - N/A   Scattered Clouds
1:53 PM 55.0 °F - 41.0 °F 59% 29.99 in 10.0 mi North 4.6 mph - N/A   Overcast
2:53 PM 53.1 °F - 44.1 °F 71% 30.01 in 10.0 mi WNW 12.7 mph - N/A   Overcast
3:53 PM 57.9 °F - 39.9 °F 51% 29.98 in 10.0 mi ESE 6.9 mph - 0.00 in   Clear
4:53 PM 60.1 °F - 39.0 °F 46% 29.96 in 10.0 mi Calm Calm - N/A   Partly Cloudy
5:53 PM 54.0 °F - 41.0 °F 62% 29.99 in 10.0 mi NNW 17.3 mph - N/A   Mostly Cloudy
6:53 PM 55.9 °F - 39.9 °F 55% 29.97 in 10.0 mi Calm Calm - 0.00 in   Scattered Clouds
7:53 PM 57.0 °F - 41.0 °F 55% 29.97 in 10.0 mi Calm Calm - N/A   Partly Cloudy
8:53 PM 55.9 °F - 42.1 °F 60% 29.97 in 10.0 mi South 4.6 mph - N/A   Partly Cloudy
9:53 PM 52.0 °F - 41.0 °F 66% 29.98 in 10.0 mi South 4.6 mph - N/A   Clear
10:53 PM 45.0 °F 41.8 °F 39.9 °F 82% 30.02 in 10.0 mi SE 5.8 mph - N/A   Clear
11:53 PM 44.1 °F 40.8 °F 39.0 °F 82% 30.01 in 10.0 mi SW 5.8 mph - N/A   Clear